User: anonymous   Login
Location: Robert Brownlee Observatory
(34.2308°N, 117.2089°W)
Time: 09:12:54
(UTC-07:00)
Language:

Cosmos 1943 - Orbit

View from above orbital plane
View from above orbital plane
View from above satellite
View from above satellite

Ground track
Ground track

The orbit data is extracted from the following two-line orbital elements,

1 19119U 88039A   15212.29442544 -.00000244  00000-0 -10123-3 0  9996
2 19119 071.0036 104.1911 0010946 011.2032 125.2013 14.15025595404926
Epoch (UTC): 31 July 2015 07:03:58
Eccentricity: 0.0010946
inclination: 71.0036°
perigee height: 834 km
apogee height: 850 km
right ascension of ascending node: 104.1911°
argument of perigee: 11.2032°
revolutions per day: 14.15025595
mean anomaly at epoch: 125.2013°
orbit number at epoch: 40492

The dashed part of the orbit path shows where the satellite is in the earth's shadow,  

DLR